Time,TemperatureF,DewpointF,PressureIn,WindDirection,WindDirectionDegrees,WindSpeedMPH,WindSpeedGustMPH,Humidity,HourlyPrecipIn,Conditions,Clouds,dailyrainin,SoftwareType,DateUTC
2013-03-14 00:00:00,34.1,25.3,29.99,WNW,297,3.0,11.0,70,0.00,,,0.00,Weather View 32 v70,2013-03-14 04:00:00,
2013-03-14 00:05:00,33.8,25.0,30.00,NNW,342,3.0,11.0,70,0.00,,,0.00,Weather View 32 v70,2013-03-14 04:05:00,
2013-03-14 00:10:00,33.6,24.9,30.00,North,354,9.0,11.0,70,0.00,,,0.00,Weather View 32 v70,2013-03-14 04:10:00,
2013-03-14 00:15:00,33.6,25.2,30.01,WSW,248,2.0,12.0,71,0.00,,,0.00,Weather View 32 v70,2013-03-14 04:15:00,
2013-03-14 00:20:00,33.8,25.0,30.00,West,280,7.0,12.0,70,0.00,,,0.00,Weather View 32 v70,2013-03-14 04:20:00,
2013-03-14 00:25:00,33.4,24.0,30.00,WNW,301,4.0,12.0,68,0.00,,,0.00,Weather View 32 v70,2013-03-14 04:25:00,
2013-03-14 00:30:00,33.2,23.8,30.01,WNW,298,2.0,12.0,68,0.00,,,0.00,Weather View 32 v70,2013-03-14 04:30:00,
2013-03-14 00:35:00,33.6,24.2,30.01,West,276,2.0,12.0,68,0.00,,,0.00,Weather View 32 v70,2013-03-14 04:35:00,
2013-03-14 00:40:00,33.4,24.0,30.00,NW,316,2.0,12.0,68,0.00,,,0.00,Weather View 32 v70,2013-03-14 04:40:00,
2013-03-14 00:45:00,33.4,23.6,30.00,North,352,5.0,12.0,67,0.00,,,0.00,Weather View 32 v70,2013-03-14 04:45:00,
2013-03-14 00:50:00,33.2,23.8,29.99,West,273,2.0,12.0,68,0.00,,,0.00,Weather View 32 v70,2013-03-14 04:50:00,
2013-03-14 00:55:00,33.0,23.6,30.00,NNW,327,3.0,12.0,68,0.00,,,0.00,Weather View 32 v70,2013-03-14 04:55:00,
2013-03-14 01:00:00,33.2,23.4,30.00,NW,314,3.0,12.0,67,0.00,,,0.00,Weather View 32 v70,2013-03-14 05:00:00,
2013-03-14 01:05:00,33.2,23.8,30.00,WNW,295,3.0,12.0,68,0.00,,,0.00,Weather View 32 v70,2013-03-14 05:05:00,
2013-03-14 01:10:00,33.2,23.8,29.99,NW,314,2.0,12.0,68,0.00,,,0.00,Weather View 32 v70,2013-03-14 05:10:00,
2013-03-14 01:15:00,33.2,23.8,30.00,WNW,291,5.0,12.0,68,0.00,,,0.00,Weather View 32 v70,2013-03-14 05:15:00,
2013-03-14 01:20:00,33.0,23.6,29.99,West,266,3.0,12.0,68,0.00,,,0.00,Weather View 32 v70,2013-03-14 05:20:00,
2013-03-14 01:25:00,33.2,23.8,30.00,WNW,291,2.0,12.0,68,0.00,,,0.00,Weather View 32 v70,2013-03-14 05:25:00,
2013-03-14 01:30:00,33.0,23.2,29.99,NW,312,2.0,12.0,67,0.00,,,0.00,Weather View 32 v70,2013-03-14 05:30:00,
2013-03-14 01:35:00,32.9,23.5,30.00,NNW,328,5.0,11.0,68,0.00,,,0.00,Weather View 32 v70,2013-03-14 05:35:00,
2013-03-14 01:40:00,33.0,23.6,29.99,NW,324,4.0,11.0,68,0.00,,,0.00,Weather View 32 v70,2013-03-14 05:40:00,
2013-03-14 01:45:00,32.9,23.1,29.99,West,273,2.0,11.0,67,0.00,,,0.00,Weather View 32 v70,2013-03-14 05:45:00,
2013-03-14 01:50:00,32.9,23.1,30.00,WSW,247,2.0,11.0,67,0.00,,,0.00,Weather View 32 v70,2013-03-14 05:50:00,
2013-03-14 01:55:00,33.2,23.8,30.00,NW,324,3.0,11.0,68,0.00,,,0.00,Weather View 32 v70,2013-03-14 05:55:00,
2013-03-14 02:00:00,32.7,22.9,29.99,NW,317,4.0,11.0,67,0.00,,,0.00,Weather View 32 v70,2013-03-14 06:00:00,
2013-03-14 02:05:00,33.0,23.6,30.00,WNW,302,3.0,11.0,68,0.00,,,0.00,Weather View 32 v70,2013-03-14 06:05:00,
2013-03-14 02:10:00,32.7,22.9,30.01,WSW,253,2.0,10.0,67,0.00,,,0.00,Weather View 32 v70,2013-03-14 06:10:00,
2013-03-14 02:15:00,32.9,23.5,29.99,NW,304,3.0,10.0,68,0.00,,,0.00,Weather View 32 v70,2013-03-14 06:15:00,
2013-03-14 02:20:00,32.3,22.9,29.99,SSW,202,2.0,10.0,68,0.00,,,0.00,Weather View 32 v70,2013-03-14 06:20:00,
2013-03-14 02:25:00,32.3,22.9,29.99,WNW,296,2.0,14.0,68,0.00,,,0.00,Weather View 32 v70,2013-03-14 06:25:00,
2013-03-14 02:30:00,32.3,22.9,29.99,NNW,337,5.0,14.0,68,0.00,,,0.00,Weather View 32 v70,2013-03-14 06:30:00,
2013-03-14 02:35:00,32.0,22.6,29.99,SW,215,11.0,14.0,68,0.00,,,0.00,Weather View 32 v70,2013-03-14 06:35:00,
2013-03-14 02:40:00,32.0,22.3,29.99,WSW,255,2.0,14.0,67,0.00,,,0.00,Weather View 32 v70,2013-03-14 06:40:00,
2013-03-14 02:45:00,31.9,22.5,29.99,NW,320,2.0,14.0,68,0.00,,,0.00,Weather View 32 v70,2013-03-14 06:45:00,
2013-03-14 02:50:00,32.1,22.7,29.99,SSW,199,2.0,14.0,68,0.00,,,0.00,Weather View 32 v70,2013-03-14 06:50:00,
2013-03-14 02:55:00,31.5,22.2,29.99,West,270,2.0,14.0,68,0.00,,,0.00,Weather View 32 v70,2013-03-14 06:55:00,
2013-03-14 03:00:00,31.9,22.5,30.00,WSW,237,1.0,14.0,68,0.00,,,0.00,Weather View 32 v70,2013-03-14 07:00:00,
2013-03-14 03:05:00,31.5,22.2,29.99,WNW,291,3.0,14.0,68,0.00,,,0.00,Weather View 32 v70,2013-03-14 07:05:00,
2013-03-14 03:10:00,31.5,22.2,30.00,South,182,2.0,14.0,68,0.00,,,0.00,Weather View 32 v70,2013-03-14 07:10:00,
2013-03-14 03:15:00,31.5,22.2,29.99,NW,324,2.0,14.0,68,0.00,,,0.00,Weather View 32 v70,2013-03-14 07:15:00,
2013-03-14 03:20:00,31.1,21.8,29.99,West,278,3.0,14.0,68,0.00,,,0.00,Weather View 32 v70,2013-03-14 07:20:00,
2013-03-14 03:25:00,31.1,21.4,30.00,WNW,302,3.0,12.0,67,0.00,,,0.00,Weather View 32 v70,2013-03-14 07:25:00,
2013-03-14 03:30:00,31.1,21.8,29.99,West,278,3.0,12.0,68,0.00,,,0.00,Weather View 32 v70,2013-03-14 07:30:00,
2013-03-14 03:35:00,31.1,21.8,30.00,SSW,200,2.0,11.0,68,0.00,,,0.00,Weather View 32 v70,2013-03-14 07:35:00,
2013-03-14 03:41:00,31.1,21.8,30.00,WSW,247,5.0,11.0,68,0.00,,,0.00,Weather View 32 v70,2013-03-14 07:41:00,
2013-03-14 03:46:00,31.0,21.7,30.00,WNW,301,10.0,15.0,68,0.00,,,0.00,Weather View 32 v70,2013-03-14 07:46:00,
2013-03-14 03:51:00,30.8,21.5,30.01,NW,319,4.0,15.0,68,0.00,,,0.00,Weather View 32 v70,2013-03-14 07:51:00,
2013-03-14 03:56:00,30.2,20.9,30.00,ENE,60,1.0,15.0,68,0.00,,,0.00,Weather View 32 v70,2013-03-14 07:56:00,
2013-03-14 04:01:00,29.9,20.6,30.00,NW,304,2.0,15.0,68,0.00,,,0.00,Weather View 32 v70,2013-03-14 08:01:00,
2013-03-14 04:06:00,29.5,20.2,30.00,WNW,289,3.0,15.0,68,0.00,,,0.00,Weather View 32 v70,2013-03-14 08:06:00,
2013-03-14 04:11:00,29.7,20.4,30.00,NW,305,5.0,15.0,68,0.00,,,0.00,Weather View 32 v70,2013-03-14 08:11:00,
2013-03-14 04:16:00,29.3,20.0,30.00,NNW,330,1.0,15.0,68,0.00,,,0.00,Weather View 32 v70,2013-03-14 08:16:00,
2013-03-14 04:21:00,29.3,20.0,30.00,WNW,282,2.0,15.0,68,0.00,,,0.00,Weather View 32 v70,2013-03-14 08:21:00,
2013-03-14 04:26:00,28.4,19.2,30.00,SW,234,1.0,15.0,68,0.00,,,0.00,Weather View 32 v70,2013-03-14 08:26:00,
2013-03-14 04:31:00,28.8,19.6,30.01,WNW,290,2.0,15.0,68,0.00,,,0.00,Weather View 32 v70,2013-03-14 08:31:00,
2013-03-14 04:36:00,29.0,19.8,30.01,WNW,288,6.0,15.0,68,0.00,,,0.00,Weather View 32 v70,2013-03-14 08:36:00,
2013-03-14 04:41:00,28.8,19.6,30.00,West,277,2.0,15.0,68,0.00,,,0.00,Weather View 32 v70,2013-03-14 08:41:00,
2013-03-14 04:47:00,28.8,19.6,30.00,West,278,3.0,9.0,68,0.00,,,0.00,Weather View 32 v70,2013-03-14 08:47:00,
2013-03-14 04:52:00,28.8,19.6,30.00,West,278,2.0,9.0,68,0.00,,,0.00,Weather View 32 v70,2013-03-14 08:52:00,
2013-03-14 04:57:00,28.4,19.2,30.01,NW,317,4.0,9.0,68,0.00,,,0.00,Weather View 32 v70,2013-03-14 08:57:00,
2013-03-14 05:02:00,28.3,19.1,30.00,NNW,337,7.0,9.0,68,0.00,,,0.00,Weather View 32 v70,2013-03-14 09:02:00,
2013-03-14 05:07:00,28.8,19.6,30.00,NNW,340,3.0,11.0,68,0.00,,,0.00,Weather View 32 v70,2013-03-14 09:07:00,
2013-03-14 05:12:00,28.3,19.1,30.00,NNW,334,4.0,11.0,68,0.00,,,0.00,Weather View 32 v70,2013-03-14 09:12:00,
2013-03-14 05:17:00,28.4,19.2,30.00,NNW,327,5.0,11.0,68,0.00,,,0.00,Weather View 32 v70,2013-03-14 09:17:00,
2013-03-14 05:22:00,28.1,18.9,30.01,WNW,301,3.0,11.0,68,0.00,,,0.00,Weather View 32 v70,2013-03-14 09:22:00,
2013-03-14 05:27:00,28.6,19.4,30.01,NW,304,2.0,11.0,68,0.00,,,0.00,Weather View 32 v70,2013-03-14 09:27:00,
2013-03-14 05:32:00,28.6,19.4,30.00,NNW,340,0.0,11.0,68,0.00,,,0.00,Weather View 32 v70,2013-03-14 09:32:00,
2013-03-14 05:37:00,28.4,18.8,30.01,WSW,255,3.0,11.0,67,0.00,,,0.00,Weather View 32 v70,2013-03-14 09:37:00,
2013-03-14 05:42:00,28.8,19.6,30.01,WNW,292,4.0,11.0,68,0.00,,,0.00,Weather View 32 v70,2013-03-14 09:42:00,
2013-03-14 05:47:00,28.6,19.4,30.01,North,356,5.0,11.0,68,0.00,,,0.00,Weather View 32 v70,2013-03-14 09:47:00,
2013-03-14 05:52:00,28.4,19.2,30.01,NNW,343,1.0,16.0,68,0.00,,,0.00,Weather View 32 v70,2013-03-14 09:52:00,
2013-03-14 05:57:00,27.9,18.7,30.01,West,275,4.0,16.0,68,0.00,,,0.00,Weather View 32 v70,2013-03-14 09:57:00,
2013-03-14 06:02:00,28.4,19.2,30.01,NNW,336,3.0,16.0,68,0.00,,,0.00,Weather View 32 v70,2013-03-14 10:02:00,
2013-03-14 06:07:00,28.3,19.1,30.02,NW,313,5.0,16.0,68,0.00,,,0.00,Weather View 32 v70,2013-03-14 10:07:00,
2013-03-14 06:12:00,28.1,18.9,30.02,NNW,331,7.0,16.0,68,0.00,,,0.00,Weather View 32 v70,2013-03-14 10:12:00,
2013-03-14 06:17:00,27.7,18.5,30.01,West,269,2.0,16.0,68,0.00,,,0.00,Weather View 32 v70,2013-03-14 10:17:00,
2013-03-14 06:22:00,27.5,18.3,30.02,North,5,4.0,16.0,68,0.00,,,0.00,Weather View 32 v70,2013-03-14 10:22:00,
2013-03-14 06:27:00,27.7,18.5,30.02,NW,324,7.0,16.0,68,0.00,,,0.00,Weather View 32 v70,2013-03-14 10:27:00,
2013-03-14 06:32:00,27.2,19.4,30.02,West,273,3.0,16.0,72,0.00,,,0.00,Weather View 32 v70,2013-03-14 10:32:00,
2013-03-14 06:37:00,27.4,19.6,30.02,NNW,345,3.0,16.0,72,0.00,,,0.00,Weather View 32 v70,2013-03-14 10:37:00,
2013-03-14 06:42:00,27.2,19.4,30.03,NNW,339,7.0,16.0,72,0.00,,,0.00,Weather View 32 v70,2013-03-14 10:42:00,
2013-03-14 06:47:00,27.2,19.4,30.03,NNW,338,3.0,16.0,72,0.00,,,0.00,Weather View 32 v70,2013-03-14 10:47:00,
2013-03-14 06:52:00,27.2,19.4,30.03,West,278,6.0,16.0,72,0.00,,,0.00,Weather View 32 v70,2013-03-14 10:52:00,
2013-03-14 06:57:00,26.8,19.0,30.03,WNW,300,5.0,16.0,72,0.00,,,0.00,Weather View 32 v70,2013-03-14 10:57:00,
2013-03-14 07:02:00,27.0,19.2,30.04,NW,318,4.0,16.0,72,0.00,,,0.00,Weather View 32 v70,2013-03-14 11:02:00,
2013-03-14 07:07:00,26.6,18.8,30.03,SW,214,1.0,13.0,72,0.00,,,0.00,Weather View 32 v70,2013-03-14 11:07:00,
2013-03-14 07:12:00,26.5,18.7,30.03,West,260,1.0,13.0,72,0.00,,,0.00,Weather View 32 v70,2013-03-14 11:12:00,
2013-03-14 07:17:00,26.8,19.0,30.03,WNW,299,3.0,13.0,72,0.00,,,0.00,Weather View 32 v70,2013-03-14 11:17:00,
2013-03-14 07:22:00,27.0,19.2,30.03,NW,311,2.0,13.0,72,0.00,,,0.00,Weather View 32 v70,2013-03-14 11:22:00,
2013-03-14 07:27:00,26.6,18.8,30.04,WNW,291,5.0,13.0,72,0.00,,,0.00,Weather View 32 v70,2013-03-14 11:27:00,
2013-03-14 07:32:00,26.6,18.8,30.03,NW,322,3.0,13.0,72,0.00,,,0.00,Weather View 32 v70,2013-03-14 11:32:00,
2013-03-14 07:37:00,26.6,18.8,30.04,NW,321,8.0,13.0,72,0.00,,,0.00,Weather View 32 v70,2013-03-14 11:37:00,
2013-03-14 07:42:00,26.6,18.8,30.04,West,267,3.0,12.0,72,0.00,,,0.00,Weather View 32 v70,2013-03-14 11:42:00,
2013-03-14 07:47:00,26.8,19.0,30.05,WNW,286,1.0,12.0,72,0.00,,,0.00,Weather View 32 v70,2013-03-14 11:47:00,
2013-03-14 07:53:00,26.8,19.0,30.05,NW,324,5.0,12.0,72,0.00,,,0.00,Weather View 32 v70,2013-03-14 11:53:00,
2013-03-14 07:58:00,26.6,18.8,30.05,NW,326,1.0,12.0,72,0.00,,,0.00,Weather View 32 v70,2013-03-14 11:58:00,
2013-03-14 08:03:00,26.5,19.0,30.05,NW,310,3.0,13.0,73,0.00,,,0.00,Weather View 32 v70,2013-03-14 12:03:00,
2013-03-14 08:08:00,26.5,18.7,30.06,WNW,292,3.0,13.0,72,0.00,,,0.00,Weather View 32 v70,2013-03-14 12:08:00,
2013-03-14 08:13:00,26.1,18.3,30.06,NNW,335,9.0,13.0,72,0.00,,,0.00,Weather View 32 v70,2013-03-14 12:13:00,
2013-03-14 08:18:00,26.1,18.3,30.06,WNW,283,8.0,13.0,72,0.00,,,0.00,Weather View 32 v70,2013-03-14 12:18:00,
2013-03-14 08:23:00,26.1,18.6,30.06,NW,319,6.0,13.0,73,0.00,,,0.00,Weather View 32 v70,2013-03-14 12:23:00,
2013-03-14 08:28:00,25.7,17.9,30.06,NW,318,6.0,19.0,72,0.00,,,0.00,Weather View 32 v70,2013-03-14 12:28:00,
2013-03-14 08:33:00,26.3,18.5,30.06,West,271,5.0,19.0,72,0.00,,,0.00,Weather View 32 v70,2013-03-14 12:33:00,
2013-03-14 08:38:00,25.2,17.4,30.06,North,351,12.0,19.0,72,0.00,,,0.00,Weather View 32 v70,2013-03-14 12:38:00,
2013-03-14 08:43:00,25.9,18.1,30.06,WNW,301,5.0,19.0,72,0.00,,,0.00,Weather View 32 v70,2013-03-14 12:43:00,
2013-03-14 08:48:00,26.3,18.5,30.06,West,268,4.0,19.0,72,0.00,,,0.00,Weather View 32 v70,2013-03-14 12:48:00,
2013-03-14 08:53:00,26.8,19.0,30.06,NNW,330,4.0,19.0,72,0.00,,,0.00,Weather View 32 v70,2013-03-14 12:53:00,
2013-03-14 08:58:00,26.8,18.7,30.06,NNE,13,5.0,19.0,71,0.00,,,0.00,Weather View 32 v70,2013-03-14 12:58:00,
2013-03-14 09:03:00,27.4,19.2,30.06,North,5,3.0,19.0,71,0.00,,,0.00,Weather View 32 v70,2013-03-14 13:03:00,
2013-03-14 09:08:00,27.5,18.3,30.06,SSW,198,2.0,19.0,68,0.00,,,0.00,Weather View 32 v70,2013-03-14 13:08:00,
2013-03-14 09:13:00,26.8,19.0,30.06,NW,323,1.0,19.0,72,0.00,,,0.00,Weather View 32 v70,2013-03-14 13:13:00,
2013-03-14 09:18:00,27.0,19.2,30.06,WSW,250,3.0,19.0,72,0.00,,,0.00,Weather View 32 v70,2013-03-14 13:18:00,
2013-03-14 09:23:00,27.2,19.4,30.06,NW,314,3.0,19.0,72,0.00,,,0.00,Weather View 32 v70,2013-03-14 13:23:00,
2013-03-14 09:28:00,27.4,19.6,30.06,NW,319,3.0,14.0,72,0.00,,,0.00,Weather View 32 v70,2013-03-14 13:28:00,
2013-03-14 09:33:00,26.5,18.7,30.06,NW,316,5.0,14.0,72,0.00,,,0.00,Weather View 32 v70,2013-03-14 13:33:00,
2013-03-14 09:38:00,26.5,18.7,30.06,WNW,295,4.0,13.0,72,0.00,,,0.00,Weather View 32 v70,2013-03-14 13:38:00,
2013-03-14 09:43:00,26.6,18.8,30.06,NNW,328,9.0,13.0,72,0.00,,,0.00,Weather View 32 v70,2013-03-14 13:43:00,
2013-03-14 09:48:00,26.3,18.5,30.06,WNW,288,5.0,13.0,72,0.00,,,0.00,Weather View 32 v70,2013-03-14 13:48:00,
2013-03-14 09:53:00,26.1,18.3,30.06,WSW,238,7.0,13.0,72,0.00,,,0.00,Weather View 32 v70,2013-03-14 13:53:00,
2013-03-14 09:58:00,27.2,19.4,30.06,NE,39,2.0,15.0,72,0.00,,,0.00,Weather View 32 v70,2013-03-14 13:58:00,
2013-03-14 10:03:00,27.5,18.3,30.06,NNW,332,4.0,15.0,68,0.00,,,0.00,Weather View 32 v70,2013-03-14 14:03:00,
2013-03-14 10:08:00,27.0,19.2,30.06,WNW,287,3.0,15.0,72,0.00,,,0.00,Weather View 32 v70,2013-03-14 14:08:00,
2013-03-14 10:15:00,26.8,19.0,30.06,NNW,327,2.0,15.0,72,0.00,,,0.00,Weather View 32 v70,2013-03-14 14:15:00,
2013-03-14 10:20:00,27.2,19.4,30.06,SE,127,1.0,17.0,72,0.00,,,0.00,Weather View 32 v70,2013-03-14 14:20:00,
2013-03-14 10:30:00,27.0,18.9,30.06,WNW,296,3.0,18.0,71,0.00,,,0.00,Weather View 32 v70,2013-03-14 14:30:00,
2013-03-14 10:38:00,27.4,19.6,30.05,North,4,15.0,18.0,72,0.00,,,0.00,Weather View 32 v70,2013-03-14 14:38:00,
2013-03-14 10:43:00,27.0,19.2,30.06,WNW,290,4.0,19.0,72,0.00,,,0.00,Weather View 32 v70,2013-03-14 14:43:00,
2013-03-14 10:48:00,27.0,19.2,30.06,WNW,293,5.0,19.0,72,0.00,,,0.00,Weather View 32 v70,2013-03-14 14:48:00,
2013-03-14 10:53:00,28.1,18.6,30.05,North,355,4.0,19.0,67,0.00,,,0.00,Weather View 32 v70,2013-03-14 14:53:00,
2013-03-14 10:58:00,27.9,18.7,30.05,NW,326,9.0,19.0,68,0.00,,,0.00,Weather View 32 v70,2013-03-14 14:58:00,
2013-03-14 11:03:00,27.9,18.7,30.05,North,357,2.0,19.0,68,0.00,,,0.00,Weather View 32 v70,2013-03-14 15:03:00,
2013-03-14 11:08:00,27.9,18.7,30.05,NNW,335,19.0,19.0,68,0.00,,,0.00,Weather View 32 v70,2013-03-14 15:08:00,
2013-03-14 11:13:00,26.8,19.0,30.05,North,11,19.0,19.0,72,0.00,,,0.00,Weather View 32 v70,2013-03-14 15:13:00,
2013-03-14 11:18:00,26.5,18.7,30.05,NNW,332,20.0,22.0,72,0.00,,,0.00,Weather View 32 v70,2013-03-14 15:18:00,
2013-03-14 11:23:00,26.3,18.5,30.06,NE,40,3.0,23.0,72,0.00,,,0.00,Weather View 32 v70,2013-03-14 15:23:00,
2013-03-14 11:28:00,26.5,18.7,30.06,WNW,301,3.0,23.0,72,0.00,,,0.00,Weather View 32 v70,2013-03-14 15:28:00,
2013-03-14 11:33:00,26.1,18.3,30.06,West,277,5.0,23.0,72,0.00,,,0.00,Weather View 32 v70,2013-03-14 15:33:00,
2013-03-14 11:38:00,26.1,18.3,30.06,WSW,245,5.0,23.0,72,0.00,,,0.00,Weather View 32 v70,2013-03-14 15:38:00,
2013-03-14 11:43:00,26.1,18.3,30.06,NW,319,9.0,23.0,72,0.00,,,0.00,Weather View 32 v70,2013-03-14 15:43:00,
2013-03-14 11:48:00,26.1,18.3,30.06,NW,313,6.0,23.0,72,0.00,,,0.00,Weather View 32 v70,2013-03-14 15:48:00,
2013-03-14 11:53:00,26.5,18.7,30.06,NNW,331,1.0,23.0,72,0.00,,,0.00,Weather View 32 v70,2013-03-14 15:53:00,
2013-03-14 11:58:00,26.3,18.5,30.06,NNW,336,2.0,23.0,72,0.00,,,0.00,Weather View 32 v70,2013-03-14 15:58:00,
2013-03-14 12:03:00,26.3,18.5,30.06,NNW,330,3.0,23.0,72,0.00,,,0.00,Weather View 32 v70,2013-03-14 16:03:00,
2013-03-14 12:08:00,26.5,18.7,30.06,WNW,299,5.0,23.0,72,0.00,,,0.00,Weather View 32 v70,2013-03-14 16:08:00,
2013-03-14 12:13:00,26.6,18.8,30.06,West,277,6.0,23.0,72,0.00,,,0.00,Weather View 32 v70,2013-03-14 16:13:00,
2013-03-14 12:18:00,26.3,18.5,30.05,NW,326,4.0,23.0,72,0.00,,,0.00,Weather View 32 v70,2013-03-14 16:18:00,
2013-03-14 12:23:00,26.1,18.3,30.05,WNW,287,15.0,23.0,72,0.00,,,0.00,Weather View 32 v70,2013-03-14 16:23:00,
2013-03-14 12:28:00,26.3,18.5,30.06,WNW,298,5.0,26.0,72,0.00,,,0.00,Weather View 32 v70,2013-03-14 16:28:00,
2013-03-14 12:33:00,26.3,18.5,30.05,NW,317,7.0,26.0,72,0.00,,,0.00,Weather View 32 v70,2013-03-14 16:33:00,
2013-03-14 12:38:00,26.1,18.3,30.06,NW,307,12.0,26.0,72,0.00,,,0.00,Weather View 32 v70,2013-03-14 16:38:00,
2013-03-14 12:43:00,26.3,18.5,30.06,NW,321,5.0,26.0,72,0.00,,,0.00,Weather View 32 v70,2013-03-14 16:43:00,
2013-03-14 12:48:00,26.3,18.5,30.06,WNW,303,7.0,26.0,72,0.00,,,0.00,Weather View 32 v70,2013-03-14 16:48:00,
2013-03-14 12:53:00,25.9,18.1,30.06,NW,311,13.0,26.0,72,0.00,,,0.00,Weather View 32 v70,2013-03-14 16:53:00,
2013-03-14 12:58:00,25.7,17.9,30.06,WNW,298,5.0,26.0,72,0.00,,,0.00,Weather View 32 v70,2013-03-14 16:58:00,
2013-03-14 13:03:00,25.7,17.9,30.06,WNW,297,8.0,26.0,72,0.00,,,0.00,Weather View 32 v70,2013-03-14 17:03:00,
2013-03-14 13:08:00,25.7,17.9,30.06,NNW,340,7.0,26.0,72,0.00,,,0.00,Weather View 32 v70,2013-03-14 17:08:00,
2013-03-14 13:13:00,25.4,17.6,30.07,North,355,9.0,26.0,72,0.00,,,0.00,Weather View 32 v70,2013-03-14 17:13:00,
2013-03-14 13:18:00,25.6,18.1,30.07,WNW,295,6.0,26.0,73,0.00,,,0.00,Weather View 32 v70,2013-03-14 17:18:00,
2013-03-14 13:23:00,25.0,17.2,30.07,North,351,4.0,26.0,72,0.00,,,0.00,Weather View 32 v70,2013-03-14 17:23:00,
2013-03-14 13:28:00,25.6,17.8,30.07,NW,321,4.0,26.0,72,0.00,,,0.00,Weather View 32 v70,2013-03-14 17:28:00,
2013-03-14 13:33:00,25.6,17.8,30.06,NW,318,13.0,26.0,72,0.00,,,0.00,Weather View 32 v70,2013-03-14 17:33:00,
2013-03-14 13:38:00,25.6,17.8,30.06,NW,319,4.0,26.0,72,0.00,,,0.00,Weather View 32 v70,2013-03-14 17:38:00,
2013-03-14 13:43:00,25.9,18.1,30.06,WNW,282,6.0,26.0,72,0.00,,,0.00,Weather View 32 v70,2013-03-14 17:43:00,
2013-03-14 13:48:00,26.5,18.7,30.06,North,353,9.0,26.0,72,0.00,,,0.00,Weather View 32 v70,2013-03-14 17:48:00,
2013-03-14 13:53:00,26.5,18.7,30.05,West,281,2.0,26.0,72,0.00,,,0.00,Weather View 32 v70,2013-03-14 17:53:00,
2013-03-14 13:58:00,27.2,19.4,30.05,WSW,239,4.0,26.0,72,0.00,,,0.00,Weather View 32 v70,2013-03-14 17:58:00,
2013-03-14 14:03:00,26.6,18.8,30.05,NNW,329,6.0,26.0,72,0.00,,,0.00,Weather View 32 v70,2013-03-14 18:03:00,
2013-03-14 14:09:00,26.5,18.4,30.03,North,8,14.0,26.0,71,0.00,,,0.00,Weather View 32 v70,2013-03-14 18:09:00,
2013-03-14 14:14:00,26.1,18.3,30.05,NNW,332,6.0,26.0,72,0.00,,,0.00,Weather View 32 v70,2013-03-14 18:14:00,
2013-03-14 14:19:00,26.3,18.5,30.04,NNW,327,17.0,23.0,72,0.00,,,0.00,Weather View 32 v70,2013-03-14 18:19:00,
2013-03-14 14:24:00,25.7,17.6,30.05,NW,315,4.0,23.0,71,0.00,,,0.00,Weather View 32 v70,2013-03-14 18:24:00,
2013-03-14 14:30:00,26.1,18.3,30.04,North,349,2.0,21.0,72,0.00,,,0.00,Weather View 32 v70,2013-03-14 18:30:00,
2013-03-14 14:35:00,26.3,18.5,30.03,North,359,11.0,21.0,72,0.00,,,0.00,Weather View 32 v70,2013-03-14 18:35:00,
2013-03-14 14:40:00,26.3,18.5,30.03,South,180,4.0,21.0,72,0.00,,,0.00,Weather View 32 v70,2013-03-14 18:40:00,
2013-03-14 14:45:00,27.0,19.2,30.03,WSW,247,3.0,21.0,72,0.00,,,0.00,Weather View 32 v70,2013-03-14 18:45:00,
2013-03-14 14:50:00,28.1,18.9,30.03,NW,315,9.0,21.0,68,0.00,,,0.00,Weather View 32 v70,2013-03-14 18:50:00,
2013-03-14 14:55:00,27.7,18.2,30.02,WNW,292,5.0,19.0,67,0.00,,,0.00,Weather View 32 v70,2013-03-14 18:55:00,
2013-03-14 15:00:00,28.1,18.9,30.02,SW,227,3.0,19.0,68,0.00,,,0.00,Weather View 32 v70,2013-03-14 19:00:00,
2013-03-14 15:05:00,27.5,18.3,30.02,WNW,284,7.0,22.0,68,0.00,,,0.00,Weather View 32 v70,2013-03-14 19:05:00,
2013-03-14 15:10:00,27.9,18.7,30.01,SSE,168,2.0,22.0,68,0.00,,,0.00,Weather View 32 v70,2013-03-14 19:10:00,
2013-03-14 15:15:00,27.7,18.5,30.02,NW,308,3.0,22.0,68,0.00,,,0.00,Weather View 32 v70,2013-03-14 19:15:00,
2013-03-14 15:20:00,27.9,18.7,30.02,West,279,8.0,22.0,68,0.00,,,0.00,Weather View 32 v70,2013-03-14 19:20:00,
2013-03-14 15:30:00,28.3,19.1,30.03,WSW,251,5.0,22.0,68,0.00,,,0.00,Weather View 32 v70,2013-03-14 19:30:00,
2013-03-14 15:35:00,27.9,18.7,30.02,WSW,246,2.0,22.0,68,0.00,,,0.00,Weather View 32 v70,2013-03-14 19:35:00,
2013-03-14 15:40:00,28.3,19.1,30.03,NNW,331,4.0,22.0,68,0.00,,,0.00,Weather View 32 v70,2013-03-14 19:40:00,
2013-03-14 15:45:00,28.1,18.9,30.02,North,351,2.0,22.0,68,0.00,,,0.00,Weather View 32 v70,2013-03-14 19:45:00,
2013-03-14 15:50:00,28.4,19.2,30.02,NW,306,5.0,22.0,68,0.00,,,0.00,Weather View 32 v70,2013-03-14 19:50:00,
2013-03-14 15:55:00,28.3,19.1,30.02,NW,324,10.0,22.0,68,0.00,,,0.00,Weather View 32 v70,2013-03-14 19:55:00,
2013-03-14 16:00:00,28.1,18.9,30.02,NNW,332,10.0,22.0,68,0.00,,,0.00,Weather View 32 v70,2013-03-14 20:00:00,
2013-03-14 16:05:00,28.3,19.1,30.02,NW,319,6.0,21.0,68,0.00,,,0.00,Weather View 32 v70,2013-03-14 20:05:00,
2013-03-14 16:10:00,28.1,18.9,30.01,North,7,11.0,21.0,68,0.00,,,0.00,Weather View 32 v70,2013-03-14 20:10:00,
2013-03-14 16:15:00,28.1,18.6,30.02,North,354,4.0,20.0,67,0.00,,,0.00,Weather View 32 v70,2013-03-14 20:15:00,
2013-03-14 16:20:00,28.8,19.2,30.03,NW,311,9.0,20.0,67,0.00,,,0.00,Weather View 32 v70,2013-03-14 20:20:00,
2013-03-14 16:25:00,28.3,19.1,30.03,NW,320,2.0,20.0,68,0.00,,,0.00,Weather View 32 v70,2013-03-14 20:25:00,
2013-03-14 16:30:00,28.3,19.1,30.02,North,351,10.0,20.0,68,0.00,,,0.00,Weather View 32 v70,2013-03-14 20:30:00,
2013-03-14 16:35:00,28.3,18.7,30.02,NNE,21,2.0,18.0,67,0.00,,,0.00,Weather View 32 v70,2013-03-14 20:35:00,
2013-03-14 16:40:00,28.8,19.6,30.02,WNW,289,3.0,18.0,68,0.00,,,0.00,Weather View 32 v70,2013-03-14 20:40:00,
2013-03-14 16:45:00,29.2,20.0,30.03,NNW,335,11.0,18.0,68,0.00,,,0.00,Weather View 32 v70,2013-03-14 20:45:00,
2013-03-14 16:50:00,29.2,19.6,30.02,West,270,4.0,18.0,67,0.00,,,0.00,Weather View 32 v70,2013-03-14 20:50:00,
2013-03-14 16:55:00,29.9,20.6,30.01,WNW,290,3.0,18.0,68,0.00,,,0.00,Weather View 32 v70,2013-03-14 20:55:00,
2013-03-14 17:00:00,29.5,20.2,30.02,WNW,298,4.0,18.0,68,0.00,,,0.00,Weather View 32 v70,2013-03-14 21:00:00,
2013-03-14 17:05:00,29.0,19.8,30.02,WNW,292,4.0,23.0,68,0.00,,,0.00,Weather View 32 v70,2013-03-14 21:05:00,
2013-03-14 17:10:00,28.3,19.4,30.03,SSE,157,2.0,23.0,69,0.00,,,0.00,Weather View 32 v70,2013-03-14 21:10:00,
2013-03-14 17:15:00,27.7,19.5,30.04,NNW,328,6.0,23.0,71,0.00,,,0.00,Weather View 32 v70,2013-03-14 21:15:00,
2013-03-14 17:20:00,27.9,20.0,30.03,WNW,303,6.0,23.0,72,0.00,,,0.00,Weather View 32 v70,2013-03-14 21:20:00,
2013-03-14 17:25:00,27.5,19.7,30.03,NW,311,2.0,23.0,72,0.00,,,0.00,Weather View 32 v70,2013-03-14 21:25:00,
2013-03-14 17:30:00,27.7,19.9,30.03,NNW,330,6.0,23.0,72,0.00,,,0.00,Weather View 32 v70,2013-03-14 21:30:00,
2013-03-14 17:35:00,27.4,21.7,30.04,WNW,297,8.0,23.0,79,0.00,,,0.00,Weather View 32 v70,2013-03-14 21:35:00,
2013-03-14 17:40:00,27.4,22.6,30.04,West,281,7.0,23.0,82,0.00,,,0.00,Weather View 32 v70,2013-03-14 21:40:00,
2013-03-14 17:45:00,26.8,23.2,30.04,WNW,297,2.0,23.0,86,0.00,,,0.00,Weather View 32 v70,2013-03-14 21:45:00,
2013-03-14 17:50:00,26.5,23.2,30.05,NE,34,5.0,23.0,87,0.00,,,0.00,Weather View 32 v70,2013-03-14 21:50:00,
2013-03-14 17:55:00,26.5,23.7,30.06,WSW,244,4.0,23.0,89,0.00,,,0.00,Weather View 32 v70,2013-03-14 21:55:00,
2013-03-14 18:00:00,26.3,23.8,30.05,WNW,303,5.0,23.0,90,0.00,,,0.00,Weather View 32 v70,2013-03-14 22:00:00,
2013-03-14 18:05:00,26.1,23.8,30.06,NNW,341,2.0,17.0,91,0.00,,,0.00,Weather View 32 v70,2013-03-14 22:05:00,
2013-03-14 18:10:00,25.9,23.9,30.06,WSW,238,3.0,17.0,92,0.00,,,0.00,Weather View 32 v70,2013-03-14 22:10:00,
2013-03-14 18:15:00,25.9,24.2,30.06,WNW,299,5.0,15.0,93,0.00,,,0.00,Weather View 32 v70,2013-03-14 22:15:00,
2013-03-14 18:20:00,25.9,24.4,30.06,NNW,343,7.0,15.0,94,0.00,,,0.00,Weather View 32 v70,2013-03-14 22:20:00,
2013-03-14 18:25:00,25.7,24.5,30.06,NW,318,4.0,16.0,95,0.00,,,0.00,Weather View 32 v70,2013-03-14 22:25:00,
2013-03-14 18:30:00,25.7,24.5,30.06,NW,304,3.0,16.0,95,0.00,,,0.00,Weather View 32 v70,2013-03-14 22:30:00,
2013-03-14 18:35:00,25.9,24.4,30.06,West,277,3.0,16.0,94,0.00,,,0.00,Weather View 32 v70,2013-03-14 22:35:00,
2013-03-14 18:40:00,26.1,24.1,30.06,WNW,288,5.0,16.0,92,0.00,,,0.00,Weather View 32 v70,2013-03-14 22:40:00,
2013-03-14 18:45:00,26.1,22.2,30.06,NNW,336,4.0,21.0,85,0.00,,,0.00,Weather View 32 v70,2013-03-14 22:45:00,
2013-03-14 18:50:00,26.3,21.3,30.06,SW,234,4.0,21.0,81,0.00,,,0.00,Weather View 32 v70,2013-03-14 22:50:00,
2013-03-14 18:55:00,26.5,20.3,30.06,North,358,11.0,21.0,77,0.00,,,0.00,Weather View 32 v70,2013-03-14 22:55:00,
2013-03-14 19:00:00,26.6,20.1,30.06,NNW,333,1.0,21.0,76,0.00,,,0.00,Weather View 32 v70,2013-03-14 23:00:00,
2013-03-14 19:05:00,26.5,19.3,30.06,NNW,343,5.0,21.0,74,0.00,,,0.00,Weather View 32 v70,2013-03-14 23:05:00,
2013-03-14 19:10:00,26.6,19.1,30.06,North,360,2.0,21.0,73,0.00,,,0.00,Weather View 32 v70,2013-03-14 23:10:00,
2013-03-14 19:15:00,26.6,18.8,30.07,NW,310,3.0,21.0,72,0.00,,,0.00,Weather View 32 v70,2013-03-14 23:15:00,
2013-03-14 19:20:00,26.6,18.8,30.07,North,5,4.0,21.0,72,0.00,,,0.00,Weather View 32 v70,2013-03-14 23:20:00,
2013-03-14 19:25:00,26.5,18.7,30.07,SW,223,3.0,21.0,72,0.00,,,0.00,Weather View 32 v70,2013-03-14 23:25:00,
2013-03-14 19:30:00,26.6,18.8,30.07,WNW,293,4.0,21.0,72,0.00,,,0.00,Weather View 32 v70,2013-03-14 23:30:00,
2013-03-14 19:35:00,26.6,18.8,30.07,NNW,343,2.0,21.0,72,0.00,,,0.00,Weather View 32 v70,2013-03-14 23:35:00,
2013-03-14 19:40:00,27.2,19.4,30.07,WNW,295,5.0,21.0,72,0.00,,,0.00,Weather View 32 v70,2013-03-14 23:40:00,
2013-03-14 19:45:00,27.5,18.7,30.07,NW,313,4.0,16.0,69,0.00,,,0.00,Weather View 32 v70,2013-03-14 23:45:00,
2013-03-14 19:50:00,27.2,19.4,30.06,NW,306,5.0,16.0,72,0.00,,,0.00,Weather View 32 v70,2013-03-14 23:50:00,
2013-03-14 19:55:00,27.4,19.6,30.06,North,352,4.0,16.0,72,0.00,,,0.00,Weather View 32 v70,2013-03-14 23:55:00,
2013-03-14 20:00:00,27.4,19.6,30.07,NE,35,2.0,16.0,72,0.00,,,0.00,Weather View 32 v70,2013-03-15 00:00:00,
2013-03-14 20:05:00,27.9,18.7,30.07,North,351,4.0,16.0,68,0.00,,,0.00,Weather View 32 v70,2013-03-15 00:05:00,
2013-03-14 20:10:00,27.5,18.3,30.07,West,279,3.0,16.0,68,0.00,,,0.00,Weather View 32 v70,2013-03-15 00:10:00,
2013-03-14 20:15:00,27.7,18.2,30.06,NNW,330,4.0,16.0,67,0.00,,,0.00,Weather View 32 v70,2013-03-15 00:15:00,
2013-03-14 20:20:00,28.1,18.9,30.07,NNW,331,6.0,16.0,68,0.00,,,0.00,Weather View 32 v70,2013-03-15 00:20:00,
2013-03-14 20:25:00,27.9,18.4,30.06,West,260,2.0,16.0,67,0.00,,,0.00,Weather View 32 v70,2013-03-15 00:25:00,
2013-03-14 20:30:00,28.1,18.6,30.06,NW,326,10.0,16.0,67,0.00,,,0.00,Weather View 32 v70,2013-03-15 00:30:00,
2013-03-14 20:35:00,28.4,18.8,30.06,WNW,296,4.0,16.0,67,0.00,,,0.00,Weather View 32 v70,2013-03-15 00:35:00,
2013-03-14 20:40:00,28.1,18.6,30.07,NNW,333,2.0,16.0,67,0.00,,,0.00,Weather View 32 v70,2013-03-15 00:40:00,
2013-03-14 20:45:00,27.9,18.4,30.07,SW,223,5.0,13.0,67,0.00,,,0.00,Weather View 32 v70,2013-03-15 00:45:00,
2013-03-14 20:50:00,28.6,19.0,30.06,NNW,332,4.0,15.0,67,0.00,,,0.00,Weather View 32 v70,2013-03-15 00:50:00,
2013-03-14 20:55:00,28.6,19.0,30.06,NW,325,7.0,15.0,67,0.00,,,0.00,Weather View 32 v70,2013-03-15 00:55:00,
2013-03-14 21:00:00,28.8,19.2,30.06,NNW,339,4.0,15.0,67,0.00,,,0.00,Weather View 32 v70,2013-03-15 01:00:00,
2013-03-14 21:05:00,28.8,21.6,30.07,NW,326,9.0,15.0,74,0.00,,,0.00,Weather View 32 v70,2013-03-15 01:05:00,
2013-03-14 21:10:00,28.8,21.2,30.06,NNW,333,9.0,18.0,73,0.00,,,0.00,Weather View 32 v70,2013-03-15 01:10:00,
2013-03-14 21:15:00,29.2,21.9,30.07,North,350,3.0,18.0,74,0.00,,,0.00,Weather View 32 v70,2013-03-15 01:15:00,
2013-03-14 21:20:00,29.0,21.4,30.06,NNW,335,4.0,18.0,73,0.00,,,0.00,Weather View 32 v70,2013-03-15 01:20:00,
2013-03-14 21:25:00,29.3,21.4,30.06,NW,323,2.0,18.0,72,0.00,,,0.00,Weather View 32 v70,2013-03-15 01:25:00,
2013-03-14 21:30:00,29.3,21.7,30.06,NW,309,4.0,18.0,73,0.00,,,0.00,Weather View 32 v70,2013-03-15 01:30:00,
2013-03-14 21:35:00,29.7,22.1,30.06,West,259,4.0,18.0,73,0.00,,,0.00,Weather View 32 v70,2013-03-15 01:35:00,
2013-03-14 21:40:00,29.0,21.4,30.07,WNW,284,3.0,18.0,73,0.00,,,0.00,Weather View 32 v70,2013-03-15 01:40:00,
2013-03-14 21:45:00,29.5,21.9,30.06,NNW,327,3.0,18.0,73,0.00,,,0.00,Weather View 32 v70,2013-03-15 01:45:00,
2013-03-14 21:50:00,29.0,21.1,30.06,NNW,333,10.0,18.0,72,0.00,,,0.00,Weather View 32 v70,2013-03-15 01:50:00,
2013-03-14 21:55:00,28.8,21.2,30.06,NW,324,2.0,18.0,73,0.00,,,0.00,Weather View 32 v70,2013-03-15 01:55:00,
2013-03-14 22:00:00,29.2,21.6,30.06,NNW,348,3.0,18.0,73,0.00,,,0.00,Weather View 32 v70,2013-03-15 02:00:00,
2013-03-14 22:05:00,29.3,21.4,30.06,NNW,342,3.0,18.0,72,0.00,,,0.00,Weather View 32 v70,2013-03-15 02:05:00,
2013-03-14 22:10:00,29.7,21.8,30.06,North,349,4.0,14.0,72,0.00,,,0.00,Weather View 32 v70,2013-03-15 02:10:00,
2013-03-14 22:15:00,29.2,21.3,30.07,SW,228,1.0,14.0,72,0.00,,,0.00,Weather View 32 v70,2013-03-15 02:15:00,
2013-03-14 22:20:00,28.8,20.9,30.07,West,275,2.0,14.0,72,0.00,,,0.00,Weather View 32 v70,2013-03-15 02:20:00,
2013-03-14 22:25:00,29.3,21.4,30.07,West,261,4.0,14.0,72,0.00,,,0.00,Weather View 32 v70,2013-03-15 02:25:00,
2013-03-14 22:30:00,29.5,21.9,30.07,West,271,6.0,14.0,73,0.00,,,0.00,Weather View 32 v70,2013-03-15 02:30:00,
2013-03-14 22:35:00,29.5,21.9,30.07,NNW,339,13.0,14.0,73,0.00,,,0.00,Weather View 32 v70,2013-03-15 02:35:00,
2013-03-14 22:40:00,29.3,21.4,30.08,NNW,347,4.0,20.0,72,0.00,,,0.00,Weather View 32 v70,2013-03-15 02:40:00,
2013-03-14 22:45:00,29.5,19.9,30.07,NNW,340,8.0,20.0,67,0.00,,,0.00,Weather View 32 v70,2013-03-15 02:45:00,
2013-03-14 22:50:00,29.5,19.9,30.07,NNW,342,6.0,20.0,67,0.00,,,0.00,Weather View 32 v70,2013-03-15 02:50:00,
2013-03-14 22:55:00,29.7,20.1,30.07,NW,324,2.0,20.0,67,0.00,,,0.00,Weather View 32 v70,2013-03-15 02:55:00,
2013-03-14 23:00:00,29.5,19.9,30.08,NW,321,6.0,20.0,67,0.00,,,0.00,Weather View 32 v70,2013-03-15 03:00:00,
2013-03-14 23:05:00,29.5,19.9,30.08,North,349,7.0,20.0,67,0.00,,,0.00,Weather View 32 v70,2013-03-15 03:05:00,
2013-03-14 23:10:00,29.5,19.9,30.08,North,4,4.0,20.0,67,0.00,,,0.00,Weather View 32 v70,2013-03-15 03:10:00,
2013-03-14 23:15:00,29.0,21.1,30.08,NW,312,4.0,20.0,72,0.00,,,0.00,Weather View 32 v70,2013-03-15 03:15:00,
2013-03-14 23:20:00,28.8,20.9,30.08,North,2,3.0,20.0,72,0.00,,,0.00,Weather View 32 v70,2013-03-15 03:20:00,
2013-03-14 23:25:00,28.6,20.7,30.08,WNW,299,6.0,20.0,72,0.00,,,0.00,Weather View 32 v70,2013-03-15 03:25:00,
2013-03-14 23:30:00,28.4,20.5,30.08,North,11,4.0,20.0,72,0.00,,,0.00,Weather View 32 v70,2013-03-15 03:30:00,
2013-03-14 23:35:00,28.4,20.5,30.08,WNW,296,5.0,20.0,72,0.00,,,0.00,Weather View 32 v70,2013-03-15 03:35:00,
2013-03-14 23:40:00,28.1,20.2,30.08,WNW,290,5.0,17.0,72,0.00,,,0.00,Weather View 32 v70,2013-03-15 03:40:00,
2013-03-14 23:45:00,28.1,20.2,30.08,NNE,13,4.0,16.0,72,0.00,,,0.00,Weather View 32 v70,2013-03-15 03:45:00,
2013-03-14 23:50:00,28.1,20.2,30.08,NNW,344,6.0,16.0,72,0.00,,,0.00,Weather View 32 v70,2013-03-15 03:50:00,
2013-03-14 23:55:00,28.3,20.4,30.08,WNW,297,8.0,16.0,72,0.00,,,0.00,Weather View 32 v70,2013-03-15 03:55:00,